Regional Weather Roundup
Issued by NWS New Orleans/Baton Rouge, LA

Home | Current Version | Previous Version | Text Only | Print | Product List | Glossary On
Versions: 1 2 3 4 5 6 7 8 9 10 11 12 13 14 15 16 17 18 19 20 21 22 23 24 25 26 27 28 29 30 31 32 33 34 35 36 37 38 39 40 41 42 43 44 45 46 47 48 49 50
148
ASUS44 KLIX 180005
RWRLIX
NEW ORLEANS REGIONAL WEATHER ROUNDUP
NATIONAL WEATHER SERVICE NEW ORLEANS LA
600 PM CST WED DEC 17 2014

NOTE: "FAIR" INDICATES FEW OR NO CLOUDS BELOW 12,000 FEET WITH NO
      SIGNIFICANT WEATHER AND/OR OBSTRUCTIONS TO VISIBILITY.
      SKY/WX - SKY CONDITION AND SIGNIFICANT WEATHER.
      TMP - AIR TEMPERATURE.     DP    - DEWPOINT TEMPERATURE.
      RH  - RELATIVE HUMIDITY.   PRES  - PRESSURE.
      HI  - HEAT INDEX.          WCI   - WIND CHILL INDEX.

*  THESE STATIONS ARE NOT NWS OR FAA STATIONS AND ARE NOT UNDER
   NWS QUALITY CONTROL.

LAZ038-040-048-061>063-065>067-069-180100-
SOUTHEAST LOUISIANA

CITY           SKY/WX    TMP DP  RH WIND       PRES   REMARKS
N.O. AUDUBON     N/A     55  44  66 MISG        N/A
6HR MIN TEMP:  54; 6HR MAX TEMP:  61;

N.O. INTL ARPT PTCLDY    54  39  57 CALM      30.19S
6HR MIN TEMP:  53; 6HR MAX TEMP:  59;

N.O. LAKEFRONT CLEAR     56  42  59 E5        30.19S
6HR MIN TEMP:  56; 6HR MAX TEMP:  60;

N.O. DOWNTOWN*   N/A     55  37  50 SE5       30.19S
6HR MIN TEMP:  55; 6HR MAX TEMP:  59;

SLIDELL        CLEAR     47  43  86 CALM      30.18S
6HR MIN TEMP:  47; 6HR MAX TEMP:  63;

BATON ROUGE    CLEAR     51  41  68 CALM      30.19R
6HR MIN TEMP:  51; 6HR MAX TEMP:  61;

BOOTHVILLE     MOCLDY    54  49  83 NE3       30.21R
6HR MIN TEMP:  54; 6HR MAX TEMP:  61;

BELLE CHASSE   MOCLDY    50  41  71 CALM      30.18S
6HR MIN TEMP:  49; 6HR MAX TEMP:  61;

BOGALUSA*        N/A     48  43  84 CALM      30.20S
6HR MIN TEMP:  48; 6HR MAX TEMP:  60;

GALLIANO*      CLEAR     55  47  73 MISG      30.20R
6HR MIN TEMP:  55; 6HR MAX TEMP:  63;

NEW ROADS*       N/A     53  40  63 CALM      30.19R
6HR MIN TEMP:  53; 6HR MAX TEMP:  60;

GONZALES*        N/A     53  43  68 CALM      30.18R
6HR MIN TEMP:  52; 6HR MAX TEMP:  61;

HAMMOND*       NOT AVBL
HOUMA*         PTCLDY    52  43  71 E5        30.18S
PORT FOURCHON* CLEAR     57  48  72 NE6       30.22S

$$

MSZ070-080>082-180100-
SOUTHERN MISSISSIPPI

CITY           SKY/WX    TMP DP  RH WIND       PRES   REMARKS
MCCOMB         CLEAR     49  41  74 CALM      30.19R
6HR MIN TEMP:  49; 6HR MAX TEMP:  59;

GULFPORT       PTCLDY    48  41  76 CALM      30.19S
6HR MIN TEMP:  48; 6HR MAX TEMP:  60;

BILOXI         CLEAR     52  42  69 NW1       30.19S
6HR MIN TEMP:  52; 6HR MAX TEMP:  60;

PASCAGOULA     CLEAR     43  39  86 CALM      30.20S
6HR MIN TEMP:  42; 6HR MAX TEMP:  61;

STENNIS ARPT*  CLEAR     48  41  76 CALM      30.19F

$$

COASTAL OBSERVATIONS
LAKE AND NEARSHORE STATIONS

STATION/POSITION TIME  TEMP    WIND        PRES    WAVE
                       AIR SEA DIR/SP/G            HT/PER
                 (UTC) (F)     (DEG/KT/KT) (MB)    (FT/S)
PASCAGOULA       0000   52     270/  4/  4 1022.0
WAVELAND YACHT   0000   53     200/  1/  2 1021.5
GRAND ISLE       0000   57 62   60/  6/  9 1022.7
SOUTHWEST PASS   0000   56                 1022.6
NEW CANAL        0000   54 58   70/  1/  3 1022.5
SHELL BEACH      0000   55 60   90/  5/  6 1022.2

OFFSHORE STATIONS

STATION/POSITION TIME  TEMP    WIND        PRES    WAVE
                       AIR SEA DIR/SP/G            HT/PER
                 (UTC) (F)     (DEG/KT/KT) (MB)    (FT/S)
64 S DAUPHIN ISL 0000   60 74  360/  8/ 10 1021.9    1/ 5

$$




USA.gov is the U.S. government's official web portal to all federal, state and local government web resources and services.